This is the latest recevied weather packets stored in our database for station/object N0TKN. If no packets are shown the sender has not sent any weather packets the latest 10 day(s).
| Time | Temp. | Humidity | Pressure | Rain* | Wind** | Luminosity | Snow |
|---|---|---|---|---|---|---|---|
| 1777349717 | 16.67° C | 81% | 1009.9 hPa | 0 mm | - | 0 W/m² | - |
| 1777349117 | 16.67° C | 81% | 1009.7 hPa | 0 mm | - | 0 W/m² | - |
| 1777348517 | 16.67° C | 81% | 1009.5 hPa | 0 mm | - | 0 W/m² | - |
| 1777347918 | 17.22° C | 80% | 1009.5 hPa | 0 mm | - | 0 W/m² | - |
| 1777347318 | 17.22° C | 80% | 1009.2 hPa | 0 mm | - | 0 W/m² | - |
| 1777346718 | 17.78° C | 80% | 1009.2 hPa | 0 mm | - | 0 W/m² | - |
| 1777346118 | 17.78° C | 80% | 1009.1 hPa | 0 mm | - | 0 W/m² | - |
| 1777345518 | 18.33° C | 81% | 1009 hPa | 0 mm | - | 0 W/m² | - |
| 1777344916 | 18.33° C | 85% | 1008.9 hPa | 0 mm | - | 0 W/m² | - |
| 1777344316 | 18.89° C | 86% | 1008.7 hPa | 0 mm | - | 0 W/m² | - |
| 1777343716 | 19.44° C | 84% | 1008.2 hPa | 0 mm | - | 0 W/m² | - |
| 1777343116 | 19.44° C | 84% | 1007.8 hPa | 0 mm | - | 0 W/m² | - |
| 1777342516 | 19.44° C | 85% | 1007.6 hPa | 0 mm | - | 0 W/m² | - |
| 1777341919 | 19.44° C | 86% | 1007.3 hPa | 0 mm | - | 0 W/m² | - |
| 1777341316 | 20° C | 84% | 1006.8 hPa | 0 mm | - | 0 W/m² | - |
| 1777340717 | 20° C | 85% | 1006.5 hPa | 0 mm | - | 0 W/m² | - |
| 1777340117 | 20° C | 85% | 1006.3 hPa | 0 mm | - | 0 W/m² | - |
| 1777339517 | 20.56° C | 84% | 1006.1 hPa | 0 mm | - | 0 W/m² | - |
| 1777338917 | 20.56° C | 86% | 1005.8 hPa | 0 mm | - | 1 W/m² | - |
| 1777338317 | 20.56° C | 88% | 1005.6 hPa | 0 mm | - | 2 W/m² | - |
| 1777337717 | 20.56° C | 90% | 1005.5 hPa | 0 mm | - | 7 W/m² | - |
| 1777337117 | 21.11° C | 90% | 1005.4 hPa | 0 mm | - | 14 W/m² | - |
| 1777336517 | 21.11° C | 90% | 1005.1 hPa | 0 mm | - | 22 W/m² | - |
| 1777335918 | 21.11° C | 90% | 1004.9 hPa | 0 mm | - | 30 W/m² | - |
| 1777335318 | 21.11° C | 89% | 1004.7 hPa | 0 mm | - | 39 W/m² | - |
* Rain latest hour (hover to see other rain measurements)
** Current wind speed in m/s (hover to see current wind gust speed)